Change the Weather History Date:

Monday, September 23, 2013

  Actual Average Record
Temperature  
Mean Temperature 58 °F -  
Max Temperature 62 °F - - ()
Min Temperature 55 °F - - ()
Degree Days  
Heating Degree Days 6    
Growing Degree Days 8 (Base 50)    
Moisture  
Dew Point 52 °F    
Average Humidity 77    
Maximum Humidity 82    
Minimum Humidity 68    
Precipitation  
Precipitation 0.00 in - - ()
Sea Level Pressure  
Sea Level Pressure 30.11 in    
Wind  
Wind Speed 12 mph ()    
Max Wind Speed 20 mph    
Max Gust Speed 31 mph    
Visibility 6.2 miles    
Events      
T = Trace of Precipitation, MM = Missing Value Source: Averaged Metar Reports

Daily Weather History Graph

Daily Weather History Graph

Search for Another Location

Airport or City:

Trip Planner

Search our weather history database for the weather conditions in past years. The results will help you decide how hot, cold, wet, or windy it might be!

Date:

Astronomy

Sep. 23, 2013 Rise Set
Actual Time 6:44 AM CEST 6:52 PM CEST
Civil Twilight 6:12 AM CEST 7:25 PM CEST
Nautical Twilight 5:34 AM CEST 8:03 PM CEST
Astronomical Twilight 4:55 AM CEST 8:42 PM CEST
Moon 8:45 PM CEST (9/23) 11:13 AM CEST (9/23)
Length of Visible Light 13h 12m
Length of Day
12h 08m
Waning Gibbous, 83% of the Moon is Illuminated
Sep 23
Waning Gibbous
Sep 27
Last Quarter
Oct 5
New
Oct 12
First Quarter
Oct 19
Full

Hourly Weather History & Observations

Time (CEST) Temp. Dew Point Humidity Pressure Visibility Wind Dir Wind Speed Gust Speed Precip Events Conditions
12:00 AM 57.2 °F 50.0 °F 77% 30.21 in 6.2 mi WSW 9.2 mph - N/A   Overcast
1:00 AM 57.2 °F 50.0 °F 77% 30.18 in 6.2 mi West 10.4 mph - N/A   Overcast
2:00 AM 57.2 °F 50.0 °F 77% 30.18 in 6.2 mi West 13.8 mph - N/A   Overcast
3:00 AM 57.2 °F 50.0 °F 77% 30.15 in 6.2 mi West 8.1 mph - N/A   Overcast
4:00 AM 55.4 °F 50.0 °F 82% 30.15 in 6.2 mi West 9.2 mph - N/A   Overcast
5:00 AM 57.2 °F 51.8 °F 82% 30.12 in 6.2 mi West 11.5 mph - N/A   Overcast
6:00 AM 57.2 °F 51.8 °F 82% 30.12 in 6.2 mi West 16.1 mph - N/A   Overcast
7:00 AM 57.2 °F 51.8 °F 82% 30.12 in 6.2 mi West 15.0 mph - N/A   Overcast
8:00 AM 59.0 °F 51.8 °F 77% 30.12 in 6.2 mi West 18.4 mph 29.9 mph N/A   Overcast
9:00 AM 59.0 °F 51.8 °F 77% 30.12 in 6.2 mi West 15.0 mph - N/A   Overcast
10:00 AM 59.0 °F 53.6 °F 82% 30.12 in 6.2 mi West 15.0 mph - N/A   Overcast
11:00 AM 59.0 °F 53.6 °F 82% 30.12 in 6.2 mi West 19.6 mph - N/A   Overcast
11:28 AM 60.8 °F 53.6 °F 77% 30.12 in 6.2 mi WNW 18.4 mph 31.1 mph N/A   Overcast
12:00 PM 60.8 °F 53.6 °F 77% 30.09 in 6.2 mi West 18.4 mph - N/A   Overcast
1:00 PM 60.8 °F 51.8 °F 72% 30.09 in 6.2 mi WNW 16.1 mph 26.5 mph N/A   Overcast
2:00 PM 60.8 °F 53.6 °F 77% 30.09 in 6.2 mi WNW 15.0 mph 26.5 mph N/A   Overcast
2:06 PM 60.8 °F 51.8 °F 72% 30.09 in 6.2 mi WNW 15.0 mph - N/A   Overcast
3:00 PM 62.6 °F 51.8 °F 68% 30.09 in 6.2 mi WNW 16.1 mph 28.8 mph N/A   Overcast
4:00 PM 62.6 °F 51.8 °F 68% 30.09 in 6.2 mi WNW 13.8 mph - N/A   Overcast
5:00 PM 60.8 °F 53.6 °F 77% 30.06 in 6.2 mi WNW 16.1 mph - N/A   Overcast
6:00 PM 60.8 °F 53.6 °F 77% 30.06 in 6.2 mi WNW 11.5 mph - N/A   Overcast
7:00 PM 59.0 °F 53.6 °F 82% 30.06 in 6.2 mi WNW 13.8 mph - N/A   Overcast
8:00 PM 59.0 °F 51.8 °F 77% 30.06 in 6.2 mi WNW 8.1 mph - N/A   Overcast
9:00 PM 59.0 °F 51.8 °F 77% 30.06 in 6.2 mi West 12.7 mph - N/A   Overcast
10:00 PM 60.8 °F 50.0 °F 68% 30.06 in 6.2 mi West 15.0 mph - N/A   Overcast
11:00 PM 59.0 °F 50.0 °F 72% 30.04 in 6.2 mi WNW 12.7 mph - N/A   Overcast